Regional Weather Roundup
Issued by NWS

Home | Current Version | Previous Version | Graphics & Text | Print | Product List | Glossary Off
Versions: 1 2 3 4 5 6 7 8 9 10 11 12 13 14 15 16 17 18 19 20 21 22 23 24 25 26 27 28 29 30 31 32 33 34 35 36 37 38 39 40 41 42 43 44 45 46 47 48 49 50

000
ASUS43 KDTX 021610
RWRMI
MICHIGAN HOURLY REGIONAL WEATHER ROUNDUP
NATIONAL WEATHER SERVICE DETROIT/PONTIAC MI
1100 AM EST MON MAR 02 2015

NOTE: "FAIR" INDICATES FEW OR NO CLOUDS BELOW 12,000 FEET WITH NO
SIGNIFICANT WEATHER AND/OR OBSTRUCTION TO VISIBILITY.

MIZ047>049-052>055-059>063-066>070-074>076-081>083-021700-
SOUTHEAST LOWER MICHIGAN

CITY           SKY/WX    TMP DP  RH WIND       PRES   REMARKS
ADRIAN         SUNNY     23  13  65 W7        30.46R WCI  15
ALMA           SUNNY     24  11  57 W9        30.43R WCI  15
BAD AXE        SUNNY     22  12  66 NW12G17   30.39R WCI  10
CARO           SUNNY     24   9  53 W9G16     30.40R WCI  14
DETROIT CITY   SUNNY     29  12  49 NW6       30.42R WCI  23
DETROIT        MOSUNNY   27  12  53 W8        30.44R WCI  19
FLINT          SUNNY     25  11  55 NW14      30.42R WCI  13
GROSSE ILE     SUNNY     27  12  54 NW7       30.43R WCI  19
HILLSDALE      SUNNY     25  14  65 NW13G18   30.43R WCI  13
HOWELL         SUNNY     24  12  60 NW9       30.41R WCI  15

CITY           SKY/WX    TMP DP  RH WIND       PRES   REMARKS
JACKSON        SUNNY     26  13  57 NW7       30.43R WCI  18
LAMBERTVILLE   SUNNY     27  14  59 W10       30.47R WCI  17
LANSING        SUNNY     25  12  58 NW10      30.44R WCI  15
LAPEER         FAIR      24   9  53 NW12G20   30.40R WCI  13
MASON          MOSUNNY   24  12  59 NW10      30.43R WCI  14
MONROE         SUNNY     25  14  63 W9        30.43S WCI  15
MT. CLEMENS    MOSUNNY   26  11  54 NW10      30.39S WCI  16
PONTIAC        MOSUNNY   25  11  55 NW14G20   30.39R WCI  13
PORT HOPE        N/A     23  10  57 NW15G21   30.36R WCI  10
PORT HURON     SUNNY     25  10  54 W13G20    30.41R WCI  13
TRI CITIES     SUNNY     25  10  53 NW9       30.41R WCI  15
TROY           MOSUNNY   29  10  45 NW7       30.43S WCI  21
SAGINAW HB     SUNNY     27  14  59 NW7       30.41R WCI  19
$$
MIZ043>046-050>051-056>058-064>065-071>073-077>080-021700-
SOUTHWEST LOWER MICHIGAN

CITY           SKY/WX    TMP DP  RH WIND       PRES   REMARKS
BATTLE CREEK   MOSUNNY   27  14  58 NW12      30.45R WCI  17
BENTON HARBOR  CLOUDY    25  16  68 W12       30.50R WCI  14
BIG RAPIDS     MOSUNNY   24   9  53 NW8       30.40R WCI  15
COLDWATER      SUNNY     23  14  68 W8        30.46R WCI  14
FREMONT        CLOUDY    24   9  53 NW8       30.44R WCI  14
HOLLAND        CLOUDY    27  14  58 NW7       30.47R WCI  19
GRAND RAPIDS   PTSUNNY   26  13  57 NW12      30.45R WCI  16
IONIA          FAIR      27  14  59 W10       30.43R WCI  17
KALAMAZOO      PTSUNNY   27  14  58 NW9       30.46R WCI  18
LUDINGTON      CLOUDY    24  10  56 N8        30.45R WCI  15
MARSHALL       MOSUNNY   26  13  58 W8        30.44R WCI  18
MOUNT PLEASANT PTSUNNY   26  11  54 W8G17     30.40R WCI  17
MUSKEGON       PTSUNNY   28  13  53 VRB7      30.46R WCI  21
SOUTH HAVEN    CLOUDY    29  17  60 NW8       30.49R WCI  21
$$
MIZ016>042-021700-
NORTHERN LOWER MICHIGAN

CITY           SKY/WX    TMP DP  RH WIND       PRES   REMARKS
ALPENA         PTSUNNY   23   6  48 NW9G20    30.35R WCI  13
BEAVER ISLAND  SUNNY     19   8  60 NW9G17    30.38S WCI   9
BELLAIRE       MOSUNNY   22   6  49 NW10G16   30.42R WCI  11
CADILLAC       MOSUNNY   21   6  53 NW7       30.35R WCI  12
CHARLEVOIX     SUNNY     20  10  64 W10       30.42S WCI   9
FRANKFORT      MOSUNNY   23  10  59 NW13G18   30.43R WCI  11
GAYLORD        PTSUNNY   19   5  54 W9G24     30.33R WCI   8
GRAYLING       SUNNY     19   5  54 W12G17    30.35S WCI   6
HARBOR SPRINGS MOSUNNY   20  10  65 SW12G18   30.38R WCI   7
HOUGHTON LAKE  MOSUNNY   20   6  55 W15       30.36S WCI   6
MANISTEE       MOSUNNY   21   7  53 NW13      30.46R WCI   9
OSCODA         MOSUNNY   23   7  50 NW10G17   30.36S WCI  13
PELLSTON       MOSUNNY   19   8  62 W14G25    30.37R WCI   6
ROGERS CITY    MOSUNNY   22   9  57 NW17G30   30.35R WCI   8
TRAVERSE CITY  MOSUNNY   22   7  52 NW10      30.40S WCI  11
$$
MIZ007>008-015-021700-
EASTERN UPPER MICHIGAN

CITY           SKY/WX    TMP DP  RH WIND       PRES   REMARKS
KINROSS        CLOUDY    19  12  73 NW15G25   30.31S WCI   5
MACKINAC ISLAN PTSUNNY   20   8  59 W18       30.34R WCI   5
NEWBERRY       PTSUNNY   19   6  59 W14       30.33S WCI   5
S. S. MARIE    CLOUDY    19   6  57 NW13G22   30.32R WCI   6
MUNISING         N/A     20   6  55 N15       30.38S WCI   6
$$
MIZ004>006-011>014-085-021700-
CENTRAL UPPER MICHIGAN

CITY           SKY/WX    TMP DP  RH WIND       PRES   REMARKS
MANISTIQUE     MOSUNNY   20   7  57 W14G20    30.36S WCI   7
ESCANABA       SUNNY     21   1  42 W13       30.41R WCI   9
MENOMINEE      SUNNY     21   5  49 NW12      30.41F WCI   9
SAWYER-GWINN   SUNNY     16   0  48 NW12G17   30.34S WCI   3
$$
MIZ001>003-009>011-084-021700-
WESTERN UPPER MICHIGAN

CITY           SKY/WX    TMP DP  RH WIND       PRES   REMARKS
IRON MOUNTAIN  SUNNY     19   5  54 NW9       30.35F WCI   8
HOUGHTON       SUNNY     15   3  59 NW13      30.35R WCI   1
COPPER HARBOR    N/A     15   2  56 N17       30.37R WCI  -1
IRONWOOD       SUNNY     16  10  79 W7        30.35S WCI   6
$$

ABBREVIATIONS USED IN REMARKS
   TC - TEMPERATURE IN CELSIUS
  WCI - WIND CHILL INDEX
   HX - HEAT INDEX
  VSB - VISIBILITY



USA.gov is the U.S. government's official web portal to all federal, state and local government web resources and services.